TOM9919 FSIA-FMNN

Flight info

Callsign TOM9919
Flight time 1h 41m
Altitude 36000
Route IMPOX1B IMPOX DCT NORSI UL441 UVDUK DCT NSB
Aircraft B738/M-SDFGHIJ1RWXYZ/LB1

Departure

Time 2026-04-22 15:26
Airport Seychelles International Airport (FSIA)

Arrival

Time 2026-04-22 17:07
Airport Nosy Be-Fascene International Airport (FMNN)
Time Latitude Longitude Altitude Speed Heading
2026-04-22 14:46 -4.66969 55.51069 13 ft 0 kts 314°
2026-04-22 15:20 -4.66967 55.51069 13 ft 1 kts 336°
2026-04-22 15:21 -4.66963 55.51071 13 ft 1 kts 27°
2026-04-22 15:21 -4.66962 55.51076 12 ft 1 kts 66°
2026-04-22 15:21 -4.66961 55.51093 13 ft 3 kts 92°
2026-04-22 15:21 -4.66959 55.51125 14 ft 6 kts 75°
2026-04-22 15:22 -4.66928 55.51160 11 ft 8 kts 39°
2026-04-22 15:22 -4.66885 55.51191 10 ft 4 kts 13°
2026-04-22 15:22 -4.66872 55.51184 11 ft 1 kts 326°
2026-04-22 15:22 -4.66864 55.51177 11 ft 2 kts 315°
2026-04-22 15:23 -4.66852 55.51161 11 ft 4 kts 306°
2026-04-22 15:23 -4.66833 55.51134 11 ft 6 kts 306°
2026-04-22 15:23 -4.66807 55.51099 11 ft 7 kts 306°
2026-04-22 15:23 -4.66779 55.51062 12 ft 7 kts 312°
2026-04-22 15:24 -4.66738 55.51048 13 ft 6 kts
2026-04-22 15:24 -4.66699 55.51067 14 ft 6 kts 38°
2026-04-22 15:24 -4.66673 55.51100 12 ft 5 kts 80°
2026-04-22 15:24 -4.66689 55.51127 13 ft 5 kts 126°
2026-04-22 15:25 -4.66710 55.51155 11 ft 10 kts 125°
2026-04-22 15:25 -4.66887 55.51409 10 ft 80 kts 125°
2026-04-22 15:25 -4.67337 55.52050 9 ft 142 kts 125°
2026-04-22 15:25 -4.67962 55.52949 420 ft 160 kts 125°
2026-04-22 15:26 -4.68616 55.53882 1129 ft 165 kts 124°
2026-04-22 15:26 -4.69318 55.54886 1545 ft 191 kts 124°
2026-04-22 15:26 -4.70138 55.56058 1765 ft 218 kts 124°
2026-04-22 15:26 -4.71037 55.57338 2204 ft 233 kts 124°
2026-04-22 15:27 -4.71991 55.58702 2946 ft 239 kts 124°
2026-04-22 15:27 -4.72951 55.60056 3829 ft 241 kts 127°
2026-04-22 15:27 -4.74314 55.61135 4330 ft 263 kts 157°
2026-04-22 15:27 -4.76155 55.61364 5013 ft 275 kts 187°
2026-04-22 15:28 -4.77955 55.60666 5749 ft 283 kts 213°
2026-04-22 15:28 -4.79478 55.59404 6554 ft 286 kts 223°
2026-04-22 15:28 -4.80898 55.57992 7293 ft 290 kts 225°
2026-04-22 15:28 -4.82308 55.56536 8068 ft 293 kts 225°
2026-04-22 15:29 -4.83741 55.55062 8882 ft 295 kts 225°
2026-04-22 15:29 -4.85184 55.53592 9702 ft 297 kts 225°
2026-04-22 15:29 -4.86636 55.52126 10279 ft 306 kts 225°
2026-04-22 15:30 -4.89329 55.49435 10570 ft 345 kts 225°
2026-04-22 15:30 -4.91685 55.47096 10785 ft 373 kts 225°
2026-04-22 15:30 -4.93571 55.45229 11063 ft 387 kts 225°
2026-04-22 15:30 -4.95505 55.43316 11574 ft 393 kts 225°
2026-04-22 15:31 -4.97457 55.41388 12200 ft 395 kts 225°
2026-04-22 15:31 -4.99418 55.39449 12807 ft 398 kts 225°
2026-04-22 15:31 -5.01400 55.37491 13322 ft 403 kts 225°
2026-04-22 15:31 -5.03406 55.35507 13823 ft 407 kts 225°
2026-04-22 15:32 -5.05429 55.33507 14316 ft 410 kts 225°
2026-04-22 15:32 -5.07469 55.31490 14785 ft 413 kts 225°
2026-04-22 15:32 -5.09520 55.29462 15260 ft 415 kts 225°
2026-04-22 15:32 -5.11603 55.27502 15736 ft 417 kts 218°
2026-04-22 15:33 -5.14099 55.25968 16137 ft 421 kts 208°
2026-04-22 15:33 -5.16699 55.24599 16606 ft 423 kts 207°
2026-04-22 15:33 -5.19327 55.23246 17053 ft 425 kts 207°
2026-04-22 15:33 -5.21941 55.21897 17397 ft 429 kts 207°
2026-04-22 15:34 -5.24604 55.20507 17812 ft 431 kts 208°
2026-04-22 15:34 -5.27276 55.19096 18222 ft 433 kts 208°
2026-04-22 15:34 -5.29950 55.17672 18523 ft 437 kts 208°
2026-04-22 15:34 -5.32636 55.16233 18870 ft 438 kts 208°
2026-04-22 15:35 -5.34416 55.15277 19081 ft 440 kts 209°
2026-04-22 15:35 -5.38019 55.13338 19449 ft 445 kts 209°
2026-04-22 15:35 -5.40749 55.11868 19790 ft 446 kts 209°
2026-04-22 15:35 -5.43494 55.10389 20080 ft 449 kts 209°
2026-04-22 15:36 -5.46266 55.08896 20360 ft 451 kts 209°
2026-04-22 15:36 -5.49003 55.07423 20697 ft 452 kts 209°
2026-04-22 15:36 -5.51781 55.05927 20965 ft 455 kts 209°
2026-04-22 15:36 -5.54575 55.04422 21252 ft 456 kts 209°
2026-04-22 15:37 -5.57384 55.02910 21549 ft 458 kts 209°
2026-04-22 15:37 -5.60201 55.01393 21803 ft 461 kts 209°
2026-04-22 15:37 -5.63029 54.99869 22088 ft 462 kts 209°
2026-04-22 15:37 -5.65869 54.98340 22330 ft 465 kts 209°
2026-04-22 15:38 -5.68723 54.96802 22568 ft 466 kts 209°
2026-04-22 15:38 -5.74469 54.93706 23083 ft 470 kts 209°
2026-04-22 15:38 -5.77355 54.92151 23314 ft 471 kts 209°
2026-04-22 15:39 -5.80250 54.90590 23539 ft 473 kts 210°
2026-04-22 15:39 -5.82170 54.89555 23661 ft 474 kts 210°
2026-04-22 15:39 -5.85088 54.87982 23869 ft 475 kts 210°
2026-04-22 15:39 -5.88005 54.86410 24079 ft 476 kts 210°
2026-04-22 15:40 -5.90929 54.84834 24276 ft 477 kts 210°
2026-04-22 15:40 -5.93859 54.83253 24468 ft 479 kts 210°
2026-04-22 15:40 -5.96797 54.81669 24653 ft 480 kts 210°
2026-04-22 15:40 -5.99710 54.80098 24833 ft 481 kts 210°
2026-04-22 15:41 -6.02669 54.78501 25011 ft 482 kts 210°
2026-04-22 15:41 -6.05636 54.76900 25183 ft 483 kts 210°
2026-04-22 15:41 -6.08610 54.75295 25367 ft 485 kts 210°
2026-04-22 15:41 -6.11551 54.73708 25529 ft 486 kts 210°
2026-04-22 15:42 -6.14538 54.72096 25703 ft 487 kts 210°
2026-04-22 15:42 -6.17525 54.70484 25864 ft 488 kts 210°
2026-04-22 15:42 -6.20526 54.68864 26030 ft 489 kts 210°
2026-04-22 15:42 -6.23527 54.67243 26168 ft 490 kts 210°
2026-04-22 15:43 -6.26543 54.65614 26310 ft 492 kts 210°
2026-04-22 15:43 -6.29560 54.63985 26465 ft 493 kts 210°
2026-04-22 15:43 -6.32582 54.62352 26619 ft 494 kts 210°
2026-04-22 15:43 -6.35604 54.60720 26763 ft 495 kts 210°
2026-04-22 15:44 -6.38604 54.59099 26909 ft 495 kts 210°
2026-04-22 15:44 -6.41638 54.57459 27113 ft 495 kts 210°
2026-04-22 15:44 -6.44667 54.55823 27355 ft 493 kts 210°
2026-04-22 15:44 -6.47688 54.54190 27599 ft 493 kts 210°
2026-04-22 15:45 -6.50700 54.52562 27806 ft 492 kts 210°
2026-04-22 15:45 -6.53725 54.50927 28000 ft 493 kts 210°
2026-04-22 15:45 -6.56757 54.49287 28217 ft 492 kts 210°
2026-04-22 15:45 -6.59771 54.47657 28473 ft 491 kts 211°
2026-04-22 15:46 -6.62776 54.46032 28736 ft 490 kts 211°
2026-04-22 15:46 -6.65776 54.44409 28970 ft 490 kts 211°
2026-04-22 15:46 -6.68744 54.42803 29180 ft 490 kts 211°
2026-04-22 15:46 -6.71743 54.41180 29420 ft 489 kts 211°
2026-04-22 15:47 -6.74739 54.39558 29673 ft 488 kts 211°
2026-04-22 15:47 -6.77737 54.37936 29927 ft 488 kts 211°
2026-04-22 15:47 -6.80731 54.36315 30141 ft 487 kts 211°
2026-04-22 15:47 -6.83689 54.34714 30351 ft 487 kts 211°
2026-04-22 15:48 -6.86668 54.33100 30581 ft 486 kts 211°
2026-04-22 15:48 -6.89648 54.31486 30806 ft 485 kts 211°
2026-04-22 15:48 -6.92610 54.29882 31035 ft 484 kts 211°
2026-04-22 15:48 -6.95581 54.28273 31266 ft 483 kts 211°
2026-04-22 15:49 -6.98539 54.26670 31501 ft 482 kts 211°
2026-04-22 15:49 -7.01492 54.25069 31740 ft 482 kts 211°
2026-04-22 15:49 -7.04440 54.23471 31981 ft 481 kts 210°
2026-04-22 15:49 -7.07380 54.21877 32245 ft 479 kts 210°
2026-04-22 15:50 -7.10320 54.20283 32500 ft 478 kts 211°
2026-04-22 15:50 -7.13207 54.18717 32774 ft 477 kts 211°
2026-04-22 15:50 -7.16131 54.17131 33038 ft 476 kts 211°
2026-04-22 15:50 -7.19045 54.15550 33269 ft 476 kts 211°
2026-04-22 15:51 -7.21964 54.13966 33494 ft 475 kts 210°
2026-04-22 15:51 -7.24874 54.12387 33751 ft 475 kts 210°
2026-04-22 15:51 -7.27782 54.10804 33993 ft 474 kts 211°
2026-04-22 15:51 -7.30669 54.09224 34208 ft 473 kts 211°
2026-04-22 15:52 -7.33565 54.07633 34397 ft 473 kts 211°
2026-04-22 15:52 -7.36448 54.06047 34580 ft 473 kts 211°
2026-04-22 15:52 -7.39343 54.04455 34783 ft 473 kts 211°
2026-04-22 15:52 -7.42205 54.02880 34826 ft 477 kts 211°
2026-04-22 15:53 -7.45132 54.01270 34943 ft 479 kts 211°
2026-04-22 15:53 -7.48058 53.99662 35191 ft 477 kts 211°
2026-04-22 15:53 -7.50970 53.98063 35471 ft 474 kts 212°
2026-04-22 15:53 -7.53865 53.96473 35684 ft 474 kts 212°
2026-04-22 15:54 -7.56686 53.94923 35839 ft 474 kts 212°
2026-04-22 15:54 -7.59672 53.93281 35874 ft 477 kts 212°
2026-04-22 15:54 -7.65460 53.90097 35872 ft 476 kts 212°
2026-04-22 15:55 -7.71250 53.86914 35878 ft 472 kts 212°
2026-04-22 15:55 -7.77012 53.83745 35874 ft 469 kts 212°
2026-04-22 15:56 -7.82728 53.80598 35878 ft 467 kts 212°
2026-04-22 15:56 -7.88431 53.77458 35883 ft 466 kts 212°
2026-04-22 15:57 -7.94099 53.74336 35889 ft 466 kts 212°
2026-04-22 15:57 -7.99805 53.71191 35889 ft 468 kts 213°
2026-04-22 15:58 -8.05540 53.68030 35889 ft 470 kts 213°
2026-04-22 15:58 -8.11262 53.64875 35888 ft 472 kts 213°
2026-04-22 15:59 -8.17040 53.61689 35886 ft 474 kts 213°
2026-04-22 15:59 -8.22845 53.58487 35886 ft 475 kts 213°
2026-04-22 16:00 -8.28657 53.55280 35892 ft 476 kts 213°
2026-04-22 16:00 -8.34490 53.52061 35881 ft 477 kts 213°
2026-04-22 16:01 -8.40273 53.48868 35884 ft 476 kts 213°
2026-04-22 16:01 -8.46083 53.45659 35889 ft 475 kts 213°
2026-04-22 16:02 -8.51866 53.42464 35890 ft 474 kts 213°
2026-04-22 16:02 -8.57643 53.39271 35897 ft 472 kts 213°
2026-04-22 16:03 -8.63394 53.36091 35885 ft 470 kts 214°
2026-04-22 16:03 -8.69091 53.32939 35887 ft 468 kts 214°
2026-04-22 16:04 -8.74800 53.29781 35891 ft 467 kts 214°
2026-04-22 16:04 -8.80492 53.26630 35890 ft 466 kts 214°
2026-04-22 16:05 -8.86179 53.23480 35894 ft 465 kts 214°
2026-04-22 16:05 -8.91825 53.20352 35892 ft 465 kts 214°
2026-04-22 16:06 -8.97503 53.17205 35894 ft 465 kts 214°
2026-04-22 16:06 -9.03199 53.14047 35895 ft 466 kts 214°
2026-04-22 16:07 -9.08896 53.10888 35923 ft 467 kts 214°
2026-04-22 16:07 -9.14602 53.07722 35904 ft 468 kts 214°
2026-04-22 16:08 -9.20285 53.04568 35898 ft 469 kts 214°
2026-04-22 16:08 -9.26013 53.01388 35894 ft 469 kts 214°
2026-04-22 16:09 -9.31745 52.98205 35898 ft 469 kts 214°
2026-04-22 16:09 -9.37447 52.95038 35908 ft 469 kts 214°
2026-04-22 16:10 -9.43172 52.91856 35900 ft 469 kts 214°
2026-04-22 16:10 -9.48893 52.88676 35894 ft 469 kts 214°
2026-04-22 16:11 -9.54603 52.85500 35897 ft 468 kts 214°
2026-04-22 16:11 -9.60308 52.82326 35898 ft 467 kts 214°
2026-04-22 16:12 -9.65995 52.79159 35911 ft 466 kts 214°
2026-04-22 16:12 -9.71654 52.76008 35899 ft 465 kts 214°
2026-04-22 16:13 -9.77324 52.72849 35899 ft 464 kts 214°
2026-04-22 16:13 -9.82990 52.69691 35902 ft 464 kts 214°
2026-04-22 16:14 -9.88649 52.66536 35902 ft 463 kts 214°
2026-04-22 16:14 -9.94270 52.63399 35911 ft 463 kts 214°
2026-04-22 16:15 -9.99929 52.60242 35905 ft 463 kts 214°
2026-04-22 16:15 -10.05575 52.57093 35900 ft 463 kts 214°
2026-04-22 16:16 -10.11191 52.53961 35902 ft 463 kts 214°
2026-04-22 16:16 -10.16845 52.50805 35908 ft 463 kts 214°
2026-04-22 16:17 -10.22501 52.47646 35913 ft 463 kts 214°
2026-04-22 16:17 -10.28125 52.44503 35907 ft 463 kts 214°
2026-04-22 16:18 -10.33769 52.41348 35908 ft 463 kts 214°
2026-04-22 16:18 -10.39408 52.38195 35910 ft 462 kts 214°
2026-04-22 16:19 -10.45041 52.35044 35913 ft 462 kts 214°
2026-04-22 16:19 -10.50672 52.31892 35923 ft 461 kts 214°
2026-04-22 16:20 -10.56262 52.28762 35915 ft 461 kts 214°
2026-04-22 16:20 -10.61871 52.25620 35913 ft 460 kts 213°
2026-04-22 16:21 -10.67473 52.22480 35913 ft 459 kts 213°
2026-04-22 16:21 -10.73058 52.19350 35913 ft 458 kts 213°
2026-04-22 16:22 -10.81390 52.14675 35919 ft 457 kts 213°
2026-04-22 16:23 -10.89757 52.09979 35920 ft 457 kts 213°
2026-04-22 16:23 -10.95328 52.06850 35926 ft 457 kts 213°
2026-04-22 16:24 -11.03643 52.02177 35932 ft 457 kts 213°
2026-04-22 16:25 -11.09217 51.99044 35929 ft 457 kts 213°
2026-04-22 16:25 -11.17574 51.94343 35925 ft 457 kts 213°
2026-04-22 16:26 -11.23148 51.91205 35926 ft 457 kts 213°
2026-04-22 16:26 -11.28716 51.88070 35944 ft 457 kts 213°
2026-04-22 16:27 -11.34263 51.84945 35932 ft 458 kts 213°
2026-04-22 16:27 -11.39839 51.81802 35931 ft 458 kts 213°
2026-04-22 16:28 -11.45422 51.78654 35935 ft 458 kts 213°
2026-04-22 16:28 -11.51004 51.75504 35933 ft 458 kts 213°
2026-04-22 16:29 -11.56548 51.72374 35935 ft 458 kts 213°
2026-04-22 16:29 -11.62129 51.69223 35935 ft 458 kts 213°
2026-04-22 16:30 -11.67088 51.65318 35946 ft 447 kts 232°
2026-04-22 16:30 -11.70404 51.60051 35944 ft 440 kts 247°
2026-04-22 16:31 -11.73009 51.54441 35932 ft 440 kts 247°
2026-04-22 16:31 -11.75631 51.48782 35934 ft 440 kts 247°
2026-04-22 16:32 -11.78279 51.43138 35943 ft 441 kts 246°
2026-04-22 16:32 -11.80927 51.37531 35943 ft 441 kts 246°
2026-04-22 16:33 -11.83598 51.31883 35938 ft 442 kts 246°
2026-04-22 16:33 -11.86271 51.26228 35940 ft 442 kts 246°
2026-04-22 16:34 -11.88931 51.20597 35944 ft 442 kts 246°
2026-04-22 16:34 -11.91604 51.14932 35944 ft 443 kts 246°
2026-04-22 16:35 -11.93830 51.10211 35944 ft 443 kts 246°
2026-04-22 16:35 -11.96944 51.03604 35947 ft 444 kts 246°
2026-04-22 16:36 -11.99617 50.97928 35950 ft 444 kts 246°
2026-04-22 16:36 -12.01861 50.93161 35943 ft 444 kts 246°
2026-04-22 16:37 -12.04523 50.87502 35948 ft 444 kts 246°
2026-04-22 16:37 -12.07204 50.81800 35949 ft 445 kts 246°
2026-04-22 16:38 -12.09885 50.76095 35947 ft 445 kts 246°
2026-04-22 16:38 -12.12562 50.70393 35951 ft 445 kts 246°
2026-04-22 16:39 -12.15224 50.64720 35945 ft 445 kts 246°
2026-04-22 16:39 -12.17900 50.59014 35949 ft 445 kts 245°
2026-04-22 16:40 -12.20573 50.53310 35951 ft 445 kts 244°
2026-04-22 16:41 -12.24584 50.44744 35941 ft 445 kts 244°
2026-04-22 16:41 -12.27258 50.39029 35943 ft 445 kts 243°
2026-04-22 16:42 -12.29915 50.33345 35960 ft 445 kts 243°
2026-04-22 16:42 -12.32590 50.27622 35949 ft 446 kts 243°
2026-04-22 16:43 -12.35268 50.21888 35942 ft 446 kts 243°
2026-04-22 16:43 -12.36589 50.19056 35927 ft 434 kts 243°
2026-04-22 16:43 -12.37863 50.16322 35939 ft 419 kts 243°
2026-04-22 16:43 -12.39097 50.13672 35924 ft 405 kts 243°
2026-04-22 16:44 -12.40275 50.11143 35924 ft 392 kts 242°
2026-04-22 16:44 -12.41435 50.08652 35628 ft 388 kts 242°
2026-04-22 16:44 -12.42595 50.06166 35234 ft 387 kts 241°
2026-04-22 16:44 -12.43760 50.03671 34587 ft 393 kts 240°
2026-04-22 16:45 -12.44971 50.01085 33456 ft 412 kts 240°
2026-04-22 16:45 -12.46243 49.98373 32158 ft 432 kts 240°
2026-04-22 16:45 -12.47569 49.95539 30899 ft 450 kts 240°
2026-04-22 16:45 -12.48944 49.92591 29679 ft 465 kts 240°
2026-04-22 16:46 -12.50344 49.89579 28627 ft 471 kts 240°
2026-04-22 16:46 -12.51743 49.86560 27895 ft 469 kts 240°
2026-04-22 16:46 -12.53130 49.83561 27340 ft 463 kts 240°
2026-04-22 16:46 -12.54505 49.80587 26783 ft 458 kts 240°
2026-04-22 16:47 -12.55863 49.77655 26184 ft 454 kts 240°
2026-04-22 16:47 -12.57198 49.74777 25572 ft 451 kts 240°
2026-04-22 16:47 -12.58555 49.71858 24493 ft 459 kts 240°
2026-04-22 16:47 -12.59951 49.68862 23424 ft 469 kts 240°
2026-04-22 16:48 -12.61344 49.65862 22821 ft 463 kts 241°
2026-04-22 16:48 -12.62708 49.62915 22297 ft 454 kts 241°
2026-04-22 16:48 -12.64051 49.60012 21669 ft 449 kts 241°
2026-04-22 16:48 -12.65388 49.57125 20945 ft 447 kts 242°
2026-04-22 16:49 -12.66723 49.54244 20187 ft 446 kts 242°
2026-04-22 16:49 -12.68035 49.51415 19519 ft 444 kts 242°
2026-04-22 16:49 -12.69351 49.48572 18884 ft 441 kts 242°
2026-04-22 16:49 -12.70664 49.45736 18264 ft 438 kts 242°
2026-04-22 16:50 -12.71965 49.42923 17572 ft 435 kts 243°
2026-04-22 16:50 -12.73253 49.40137 16969 ft 430 kts 243°
2026-04-22 16:50 -12.74528 49.37379 16329 ft 427 kts 243°
2026-04-22 16:50 -12.75793 49.34644 15742 ft 423 kts 243°
2026-04-22 16:51 -12.77045 49.31933 15161 ft 419 kts 243°
2026-04-22 16:51 -12.78288 49.29243 14528 ft 417 kts 243°
2026-04-22 16:51 -12.79522 49.26569 14238 ft 407 kts 243°
2026-04-22 16:51 -12.80706 49.24002 14136 ft 391 kts 243°
2026-04-22 16:52 -12.81843 49.21536 14073 ft 375 kts 243°
2026-04-22 16:52 -12.82937 49.19162 13993 ft 362 kts 243°
2026-04-22 16:52 -12.83979 49.16902 13915 ft 349 kts 243°
2026-04-22 16:52 -12.85002 49.14684 13839 ft 338 kts 243°
2026-04-22 16:53 -12.85988 49.12545 13751 ft 327 kts 243°
2026-04-22 16:53 -12.86953 49.10452 13485 ft 322 kts 243°
2026-04-22 16:53 -12.87911 49.08377 13128 ft 322 kts 243°
2026-04-22 16:53 -12.88863 49.06311 12776 ft 321 kts 243°
2026-04-22 16:54 -12.89814 49.04249 12441 ft 319 kts 243°
2026-04-22 16:54 -12.90758 49.02199 12139 ft 317 kts 243°
2026-04-22 16:54 -12.91696 49.00163 11820 ft 315 kts 243°
2026-04-22 16:54 -12.92619 48.98158 11496 ft 314 kts 243°
2026-04-22 16:55 -12.93549 48.96136 11183 ft 312 kts 243°
2026-04-22 16:55 -12.94473 48.94129 10887 ft 310 kts 243°
2026-04-22 16:55 -12.95393 48.92127 10584 ft 309 kts 243°
2026-04-22 16:55 -12.96307 48.90139 10283 ft 308 kts 243°
2026-04-22 16:56 -12.97215 48.88163 9981 ft 303 kts 243°
2026-04-22 16:56 -12.98109 48.86217 9489 ft 301 kts 243°
2026-04-22 16:56 -12.99003 48.84272 8914 ft 302 kts 243°
2026-04-22 16:56 -12.99896 48.82328 8394 ft 301 kts 243°
2026-04-22 16:57 -13.00784 48.80394 7895 ft 299 kts 242°
2026-04-22 16:57 -13.01656 48.78494 7401 ft 298 kts 242°
2026-04-22 16:57 -13.02540 48.76568 6908 ft 297 kts 242°
2026-04-22 16:57 -13.03423 48.74645 6477 ft 300 kts 242°
2026-04-22 16:58 -13.04010 48.73366 6291 ft 298 kts 242°
2026-04-22 16:58 -13.05185 48.70802 5924 ft 295 kts 241°
2026-04-22 16:58 -13.06052 48.68910 5653 ft 292 kts 241°
2026-04-22 16:58 -13.06916 48.67026 5352 ft 291 kts 240°
2026-04-22 16:59 -13.07762 48.65180 5096 ft 288 kts 240°
2026-04-22 16:59 -13.08613 48.63321 4837 ft 286 kts 240°
2026-04-22 16:59 -13.09441 48.61511 4776 ft 275 kts 240°
2026-04-22 16:59 -13.10241 48.59761 4712 ft 265 kts 240°
2026-04-22 17:00 -13.11011 48.58077 4642 ft 256 kts 240°
2026-04-22 17:00 -13.12469 48.54893 4510 ft 235 kts 240°
2026-04-22 17:00 -13.13135 48.53436 4425 ft 222 kts 240°
2026-04-22 17:01 -13.13778 48.52034 4274 ft 213 kts 240°
2026-04-22 17:01 -13.14397 48.50681 4094 ft 205 kts 240°
2026-04-22 17:01 -13.14992 48.49382 3902 ft 198 kts 240°
2026-04-22 17:01 -13.15567 48.48126 3722 ft 191 kts 240°
2026-04-22 17:02 -13.16126 48.46905 3645 ft 187 kts 240°
2026-04-22 17:02 -13.16680 48.45695 3552 ft 190 kts 240°
2026-04-22 17:02 -13.17415 48.44573 3363 ft 190 kts 218°
2026-04-22 17:02 -13.18395 48.43674 3192 ft 188 kts 218°
2026-04-22 17:03 -13.19348 48.42780 2982 ft 180 kts 220°
2026-04-22 17:03 -13.20232 48.41949 2806 ft 165 kts 221°
2026-04-22 17:03 -13.21030 48.41193 2640 ft 155 kts 221°
2026-04-22 17:03 -13.21834 48.40430 2388 ft 156 kts 221°
2026-04-22 17:04 -13.22621 48.39681 2177 ft 151 kts 222°
2026-04-22 17:04 -13.23386 48.38954 1977 ft 149 kts 222°
2026-04-22 17:04 -13.24146 48.38230 1789 ft 149 kts 222°
2026-04-22 17:04 -13.24906 48.37505 1592 ft 149 kts 223°
2026-04-22 17:05 -13.25665 48.36781 1397 ft 149 kts 223°
2026-04-22 17:05 -13.26427 48.36053 1190 ft 149 kts 223°
2026-04-22 17:05 -13.27186 48.35328 986 ft 149 kts 222°
2026-04-22 17:05 -13.27949 48.34604 789 ft 150 kts 223°
2026-04-22 17:06 -13.28704 48.33868 572 ft 150 kts 223°
2026-04-22 17:06 -13.29457 48.33148 353 ft 149 kts 223°
2026-04-22 17:06 -13.30224 48.32416 135 ft 149 kts 223°
2026-04-22 17:06 -13.30959 48.31715 27 ft 134 kts 223°
2026-04-22 17:07 -13.31484 48.31216 31 ft 71 kts 223°
2026-04-22 17:07 -13.31697 48.31013 33 ft 23 kts 223°
2026-04-22 17:07 -13.31773 48.30942 36 ft 9 kts 220°
2026-04-22 17:07 -13.31821 48.30958 35 ft 6 kts 135°
2026-04-22 17:08 -13.31834 48.30971 36 ft 0 kts 135°
2026-04-22 17:08 -13.31841 48.30974 37 ft 3 kts 157°
2026-04-22 17:09 -13.31864 48.31001 36 ft 8 kts 81°
2026-04-22 17:09 -13.31847 48.31039 34 ft 2 kts 62°
2026-04-22 17:09 -13.31847 48.31040 34 ft 0 kts 62°